Dyersburg, TN

2:36 AM CST on February 26, 2017 (GMT -0600)
Dyersburg Municipal

Weather History for KDYR - February, 2013

Change the Weather History Date:

Monday, February 25, 2013

  Actual Average Record
Temperature  
Mean Temperature 48 °F -  
Max Temperature 60 °F 50 °F 69 °F (1998)
Min Temperature 37 °F 36 °F 19 °F (2003)
Degree Days  
Heating Degree Days 16    
Moisture  
Dew Point 29 °F    
Average Humidity 46    
Maximum Humidity 71    
Minimum Humidity 29    
Precipitation  
Precipitation 0.44 in - - ()
Sea Level Pressure  
Sea Level Pressure 29.75 in    
Wind  
Wind Speed 10 mph (East)    
Max Wind Speed 16 mph    
Max Gust Speed 26 mph    
Visibility 10 miles    
Events Thunderstorm    
Averages and records for this station are not official NWS values.
T = Trace of Precipitation, MM = Missing Value Source: NWS Daily Summary

Daily Weather History Graph

Daily Weather History Graph

Search for Another Location

Airport or City:

Trip Planner

Search our weather history database for the weather conditions in past years. The results will help you decide how hot, cold, wet, or windy it might be!

Date:

Astronomy

Feb. 25, 2013 Rise Set
Actual Time 6:32 AM CST 5:49 PM CST
Civil Twilight 6:06 AM CST 6:14 PM CST
Nautical Twilight 5:37 AM CST 6:44 PM CST
Astronomical Twilight 5:07 AM CST 7:14 PM CST
Moon 6:00 PM CST (2/25) 6:04 AM CST (2/25)
Length of Visible Light 12h 08m
Length of Day
11h 16m
Full, 100% of the Moon is Illuminated
Feb 25
Full
Feb 25
Full
Mar 4
Last Quarter
Mar 11
New
Mar 19
First Quarter

Hourly Weather History & Observations

Time (CST) Temp. Windchill Dew Point Humidity Pressure Visibility Wind Dir Wind Speed Gust Speed Precip Events Conditions
12:15 AM 41.0 °F 36.4 °F 23.0 °F 49% 29.98 in 10.0 mi East 6.9 mph - N/A   Clear
12:35 AM 41.0 °F 37.1 °F 23.0 °F 49% 29.98 in 10.0 mi ENE 5.8 mph - N/A   Clear
12:55 AM 39.2 °F 34.2 °F 23.0 °F 52% 29.98 in 10.0 mi ENE 6.9 mph - N/A   Clear
1:15 AM 39.2 °F 34.2 °F 23.0 °F 52% 29.98 in 10.0 mi ENE 6.9 mph - N/A   Clear
1:35 AM 39.2 °F 35.0 °F 23.0 °F 52% 29.98 in 10.0 mi ENE 5.8 mph - N/A   Clear
1:55 AM 39.2 °F 35.0 °F 21.2 °F 49% 29.98 in 10.0 mi ENE 5.8 mph - N/A   Clear
2:15 AM 39.2 °F 33.6 °F 21.2 °F 49% 29.97 in 10.0 mi ENE 8.1 mph - N/A   Clear
2:35 AM 39.2 °F 33.6 °F 21.2 °F 49% 29.96 in 10.0 mi ENE 8.1 mph - N/A   Clear
2:55 AM 39.2 °F 34.2 °F 21.2 °F 49% 29.96 in 10.0 mi ENE 6.9 mph - N/A   Clear
3:15 AM 39.2 °F 33.0 °F 21.2 °F 49% 29.95 in 10.0 mi ENE 9.2 mph - N/A   Clear
3:35 AM 39.2 °F 33.6 °F 21.2 °F 49% 29.95 in 10.0 mi ENE 8.1 mph - N/A   Clear
3:55 AM 39.2 °F 33.0 °F 21.2 °F 49% 29.95 in 10.0 mi NE 9.2 mph - N/A   Clear
4:15 AM 39.2 °F 32.0 °F 21.2 °F 49% 29.95 in 10.0 mi ENE 11.5 mph - N/A   Clear
4:35 AM 39.2 °F 32.0 °F 21.2 °F 49% 29.93 in 10.0 mi ENE 11.5 mph - N/A   Clear
4:55 AM 39.2 °F 33.6 °F 21.2 °F 49% 29.93 in 10.0 mi ENE 8.1 mph - N/A   Clear
5:15 AM 39.2 °F 33.6 °F 21.2 °F 49% 29.93 in 10.0 mi ENE 8.1 mph - N/A   Clear
5:35 AM 39.2 °F 32.5 °F 21.2 °F 49% 29.92 in 10.0 mi ENE 10.4 mph - N/A   Clear
5:55 AM 39.2 °F 32.0 °F 21.2 °F 49% 29.92 in 10.0 mi ENE 11.5 mph - N/A   Clear
6:15 AM 39.2 °F 33.0 °F 21.2 °F 49% 29.93 in 10.0 mi East 9.2 mph - N/A   Clear
6:35 AM 37.4 °F 30.8 °F 21.2 °F 52% 29.92 in 10.0 mi ENE 9.2 mph - N/A   Clear
6:55 AM 37.4 °F 30.8 °F 19.4 °F 48% 29.92 in 10.0 mi ENE 9.2 mph - N/A   Clear
7:15 AM 37.4 °F 31.4 °F 21.2 °F 52% 29.92 in 10.0 mi ENE 8.1 mph - N/A   Clear
7:35 AM 39.2 °F 32.5 °F 21.2 °F 49% 29.91 in 10.0 mi ENE 10.4 mph - N/A   Clear
7:55 AM 42.8 °F 36.6 °F 21.2 °F 42% 29.91 in 10.0 mi ENE 11.5 mph - N/A   Clear
8:15 AM 42.8 °F 36.6 °F 23.0 °F 46% 29.92 in 10.0 mi ENE 11.5 mph - N/A   Clear
8:35 AM 44.6 °F 38.4 °F 24.8 °F 46% 29.92 in 10.0 mi ENE 12.7 mph 19.6 mph N/A   Clear
8:55 AM 46.4 °F 40.4 °F 24.8 °F 43% 29.91 in 10.0 mi East 13.8 mph 17.3 mph N/A   Clear
9:15 AM 48.2 °F - 24.8 °F 40% 29.91 in 10.0 mi East 15.0 mph 20.7 mph N/A   Clear
9:35 AM 48.2 °F - 24.8 °F 40% 29.90 in 10.0 mi East 12.7 mph 18.4 mph N/A   Clear
9:55 AM 51.8 °F - 26.6 °F 38% 29.90 in 10.0 mi East 11.5 mph 19.6 mph N/A   Clear
10:15 AM 51.8 °F - 26.6 °F 38% 29.89 in 10.0 mi East 11.5 mph 19.6 mph N/A   Clear
10:35 AM 51.8 °F - 24.8 °F 35% 29.89 in 10.0 mi East 16.1 mph 20.7 mph N/A   Clear
10:55 AM 53.6 °F - 26.6 °F 35% 29.87 in 10.0 mi East 13.8 mph 21.9 mph N/A   Clear
11:15 AM 53.6 °F - 26.6 °F 35% 29.87 in 10.0 mi East 12.7 mph 17.3 mph N/A   Mostly Cloudy
11:35 AM 55.4 °F - 26.6 °F 33% 29.85 in 10.0 mi ENE 13.8 mph 21.9 mph N/A   Mostly Cloudy
11:55 AM 55.4 °F - 26.6 °F 33% 29.83 in 10.0 mi East 16.1 mph - N/A   Mostly Cloudy
12:15 PM 55.4 °F - 26.6 °F 33% 29.82 in 10.0 mi East 10.4 mph - N/A   Mostly Cloudy
12:35 PM 55.4 °F - 26.6 °F 33% 29.80 in 10.0 mi ENE 10.4 mph - N/A   Overcast
12:55 PM 57.2 °F - 26.6 °F 31% 29.77 in 10.0 mi ENE 11.5 mph - N/A   Overcast
1:15 PM 57.2 °F - 28.4 °F 33% 29.76 in 10.0 mi East 13.8 mph 17.3 mph N/A   Overcast
1:35 PM 59.0 °F - 28.4 °F 31% 29.73 in 10.0 mi East 12.7 mph 21.9 mph N/A   Overcast
1:55 PM 59.0 °F - 26.6 °F 29% 29.72 in 10.0 mi East 9.2 mph 17.3 mph N/A   Overcast
2:15 PM 59.0 °F - 26.6 °F 29% 29.71 in 10.0 mi East 12.7 mph 19.6 mph N/A   Overcast
2:35 PM 60.8 °F - 28.4 °F 29% 29.70 in 10.0 mi East 15.0 mph - N/A   Overcast
2:55 PM 60.8 °F - 28.4 °F 29% 29.68 in 10.0 mi East 13.8 mph 20.7 mph N/A   Overcast
3:15 PM 60.8 °F - 28.4 °F 29% 29.67 in 10.0 mi East 15.0 mph 21.9 mph N/A   Overcast
3:35 PM 60.8 °F - 28.4 °F 29% 29.65 in 10.0 mi East 12.7 mph 19.6 mph N/A   Overcast
3:55 PM 60.8 °F - 28.4 °F 29% 29.62 in 10.0 mi East 11.5 mph - N/A   Overcast
4:15 PM 59.0 °F - 32.0 °F 36% 29.60 in 10.0 mi East 11.5 mph - N/A   Overcast
4:35 PM 59.0 °F - 33.8 °F 39% 29.60 in 10.0 mi East 9.2 mph 20.7 mph N/A   Overcast
4:55 PM 59.0 °F - 35.6 °F 42% 29.61 in 10.0 mi East 11.5 mph 16.1 mph N/A   Overcast
5:15 PM 59.0 °F - 35.6 °F 42% 29.59 in 10.0 mi East 15.0 mph 20.7 mph N/A   Overcast
5:35 PM 59.0 °F - 35.6 °F 42% 29.59 in 10.0 mi East 12.7 mph 24.2 mph N/A   Overcast
5:55 PM 57.2 °F - 37.4 °F 48% 29.59 in 10.0 mi ESE 16.1 mph 25.3 mph N/A   Overcast
6:15 PM 57.2 °F - 37.4 °F 48% 29.59 in 10.0 mi East 16.1 mph 25.3 mph N/A   Overcast
6:35 PM 57.2 °F - 37.4 °F 48% 29.58 in 10.0 mi East 16.1 mph 24.2 mph N/A   Overcast
6:55 PM 57.2 °F - 37.4 °F 48% 29.56 in 10.0 mi East 13.8 mph 21.9 mph N/A   Overcast
7:15 PM 57.2 °F - 37.4 °F 48% 29.54 in 10.0 mi East 15.0 mph 25.3 mph N/A   Overcast
7:35 PM 57.2 °F - 37.4 °F 48% 29.53 in 10.0 mi East 16.1 mph 24.2 mph N/A   Overcast
7:55 PM 57.2 °F - 37.4 °F 48% 29.51 in 10.0 mi ESE 13.8 mph 26.5 mph N/A Thunderstorm Thunderstorm
8:15 PM 57.2 °F - 37.4 °F 48% 29.52 in 10.0 mi ESE 11.5 mph 23.0 mph N/A Thunderstorm Thunderstorm
8:35 PM 55.4 °F - 39.2 °F 54% 29.51 in 10.0 mi ESE 11.5 mph 19.6 mph 0.02 in Thunderstorm Thunderstorm
8:55 PM 55.4 °F - 42.8 °F 63% 29.50 in 10.0 mi ESE 11.5 mph 17.3 mph 0.05 in   Overcast
9:15 PM 55.4 °F - 42.8 °F 63% 29.49 in 10.0 mi East 10.4 mph - 0.02 in   Overcast
9:35 PM 53.6 °F - 42.8 °F 67% 29.48 in 9.0 mi East 10.4 mph 17.3 mph 0.05 in   Overcast
9:55 PM 51.8 °F - 42.8 °F 71% 29.46 in 6.0 mi East 8.1 mph - 0.14 in   Overcast
10:15 PM 51.8 °F - 42.8 °F 71% 29.46 in 8.0 mi East 13.8 mph 18.4 mph 0.07 in   Overcast
10:35 PM 51.8 °F - 41.0 °F 67% 29.43 in 8.0 mi East 15.0 mph 19.6 mph 0.11 in   Overcast
10:55 PM 50.0 °F - 41.0 °F 71% 29.39 in 8.0 mi East 12.7 mph - 0.16 in   Overcast
11:15 PM 50.0 °F - 41.0 °F 71% 29.37 in 10.0 mi East 13.8 mph 20.7 mph N/A   Overcast
11:35 PM 50.0 °F - 41.0 °F 71% 29.42 in 8.0 mi SE 11.5 mph 20.7 mph 0.07 in Thunderstorm Overcast
11:55 PM 50.0 °F - 41.0 °F 71% 29.40 in 10.0 mi SE 13.8 mph 23.0 mph 0.09 in   Overcast